Regional Weather Roundup
Issued by NWS

Home | Current Version | Previous Version | Graphics & Text | Print | Product List | Glossary Off
Versions: 1 2 3 4 5 6 7 8 9 10 11 12 13 14 15 16 17 18 19 20 21 22 23 24 25 26 27 28 29 30 31 32 33 34 35 36 37 38 39 40 41 42 43 44 45 46 47 48 49 50

000
ASUS43 KMKX 030831
RWRWI

WISCONSIN REGIONAL WEATHER ROUNDUP
NATIONAL WEATHER SERVICE MILWAUKEE/SULLIVAN WI
400 AM CDT WED JUN 03 2015

NOTE: "FAIR" INDICATES FEW OR NO CLOUDS BELOW 12,000 FEET WITH NO
SIGNIFICANT WEATHER AND/OR OBSTRUCTIONS TO VISIBILITY.

WIZ001-002-006>008-014>016-023>028-031000-
NORTHWEST WISCONSIN

CITY           SKY/WX    TMP DP  RH WIND       PRES   REMARKS
SUPERIOR ARPT  CLOUDY    46  41  84 N7        29.90R
ASHLAND        MOCLDY    62  49  62 S10       29.92S
HAYWARD        CLOUDY    60  49  66 S8        29.92F
SIREN          CLOUDY    64  51  64 S8        29.90F
CUMBERLAND     MOCLDY    55  48  76 S6        29.94S
RICE LAKE      MOCLDY    59  49  70 SE7       29.95S
CHETEK         MOCLDY    58  50  74 SE9       29.94F
LADYSMITH      PTCLDY    56  48  74 CALM      29.98S
EAU CLAIRE     CLEAR     59  48  67 S7        29.95S
MENOMONIE      PTCLDY    57  51  80 E6        29.94F
NEW RICHMOND   CLOUDY    62  52  69 S12       29.92R
OSCEOLA        CLOUDY    63  53  69 SE10      29.93S
$$

WIZ003>005-009-010-017-018-031000-
NORTH CENTRAL WISCONSIN

CITY           SKY/WX    TMP DP  RH WIND       PRES   REMARKS
MANITOWISH WTR PTCLDY    54  45  71 S7        29.98S
ARBOR VITAE    PTCLDY    57  45  65 S6        29.99S
WOODRUFF       PTCLDY    57  45  65 S6        29.99S
RHINELANDER    PTCLDY    54  43  66 S5        30.01F
EAGLE RIVER    MOCLDY    52  40  64 S5        30.00S
LAND O LAKES   PTCLDY    55  42  60 S6        30.00F
PHILLIPS       MOCLDY    56  45  65 S8        29.97S
TOMAHAWK       PTCLDY    51  44  77 CALM      30.01S
MEDFORD        PTCLDY    53  46  76 SE5       30.00S
MERRILL        PTCLDY    54  46  73 S6        30.02F
$$

WIZ029-030-035-036-043>047-031000-
CENTRAL WISCONSIN

CITY           SKY/WX    TMP DP  RH WIND       PRES   REMARKS
WAUSAU         PTCLDY    54  46  74 SE5       30.01S
MOSINEE        PTCLDY    50  46  87 E5        30.03S
MARSHFIELD     CLEAR     53  46  77 S8        30.00F
STEVENS POINT  PTCLDY    53  43  68 S5        30.03S
WAUPACA        CLEAR     49  46  90 CALM      30.04S
WAUTOMA        CLEAR     47  47 100 CALM      30.04F
WISC RAPIDS    CLEAR     53  45  74 S5        30.03S
CAMP DOUGLAS   CLEAR     43  43 100 SE3       30.00F
$$

WIZ011>013-019>022-031-037>040-048>050-031000-
NORTHEAST WISCONSIN

CITY           SKY/WX    TMP DP  RH WIND       PRES   REMARKS
ANTIGO         PTCLDY    48  44  85 S7        30.04R
SHAWANO        PTCLDY    53  39  60 CALM      30.04F
OCONTO         PTCLDY    52  47  82 S5        30.05F
STURGEON BAY   PTCLDY    48  36  61 S10       30.08S
GREEN BAY      CLEAR     48  42  80 CALM      30.06S
MANITOWOC      PTCLDY    47  43  86 SW3       30.08S
APPLETON       PTCLDY    54  45  71 S6        30.05S
CLINTONVILLE   CLEAR     46  45  93 CALM      30.04S
OSHKOSH        PTCLDY    49  44  83 S8        30.04F
$$

WIZ032>034-041-042-053>061-031000-
SOUTHWEST WISCONSIN

CITY           SKY/WX    TMP DP  RH WIND       PRES   REMARKS
LA CROSSE      CLEAR     60  49  66 S6        29.98S
SPARTA         CLEAR     50  44  79 CALM      30.00F
VIROQUA        CLEAR     57  47  69 S8        30.01S
BOSCOBEL       CLEAR     51  48  89 CALM      30.01F
PRAIRIE DU CHI PTCLDY    55  49  80 E5        30.00S
PLATTEVILLE    PTCLDY    57  49  73 SE7       30.02F
$$

WIZ056-057-062-063-064-067-068-031000-
SOUTH CENTRAL WISCONSIN

CITY           SKY/WX    TMP DP  RH WIND       PRES   REMARKS
REEDSBURG      PTCLDY    54  47  76 SE3       30.02F
BARABOO/DELLS  PTCLDY    53  45  73 S3        30.02F
LONE ROCK      PTCLDY    53  48  83 E7        30.02F
MINERAL POINT  PTCLDY    55  46  71 SE7       30.03S
MADISON        PTCLDY    58  48  69 S9        30.04F
MIDDLETON      PTCLDY    59  47  63 S6        30.04F
WATERTOWN      PTCLDY    51  47  86 CALM      30.06S
MONROE         PTCLDY    54  48  82 SE10      30.05S
JANESVILLE     PTCLDY    55  46  71 S8        30.05F
$$

WIZ051-052-058>065-066-070>072-031000-
SOUTHEAST WISCONSIN

CITY           SKY/WX    TMP DP  RH WIND       PRES   REMARKS
MILWAUKEE      MOCLDY    49  42  77 S5        30.09F
WAUKESHA       PTCLDY    48  43  81 CALM      30.09S
MILWAUKEE/TIMM PTCLDY    48  41  76 CALM      30.08F
RACINE         PTCLDY    48  42  80 S3        30.10F
BURLINGTON     PTCLDY    44  43  95 CALM      30.08F
KENOSHA        PTCLDY    49  43  80 S3        30.08F
FOND DU LAC    PTCLDY    50  45  83 S7        30.05F
SHEBOYGAN      PTCLDY    46  44  93 SW3       30.08F
WEST BEND      PTCLDY    48  43  81 CALM      30.08S
JUNEAU         PTCLDY    51  46  83 CALM      30.07S
$$

LSZ147-162-031000-
LAKE SUPERIOR

STATION/POSITION TIME  TEMP    WIND        PRES    WAVE
                       AIR SEA DIR/SP/G            HT/PER
                 (UTC) (F)     (DEG/KT/KT) (MB)    (FT/S)
W MID LAKE BUOY  0750   48 37  170/  6/  8   N/A     1
DEVILS ISLAND    0800   59     170/  8/ 11   N/A
PORT WING        0700   44      CALM  /  1   N/A
SAXON HARBOR     0700   60      CALM  /  3   N/A
$$

LMZ867-665-643>646-031000-
LAKE MICHIGAN

STATION/POSITION TIME  TEMP    WIND        PRES    WAVE
                       AIR SEA DIR/SP/G            HT/PER
                 (UTC) (F)     (DEG/KT/KT) (MB)    (FT/S)
CHAMBERS ISLAND  0700   51     170/  4/  9   N/A
N MID LAKE BUOY  0750   43 37  170/  8/ 10   N/A     0
NORTHPORT PIER   0700   51     160/  6/ 10   N/A
SISTER BAY       0718   48     150/ 11/ 14   N/A
ALGOMA LAKESHORE 0709          210/  8/ 10   N/A
KEWAUNEE LAKESHO 0800   50     220/  6/  9   N/A
SHEBOYGAN LAKESH 0800   50     220/  6/  7   N/A
PORT WASHINGTON  0700   48        CALM       N/A
ATWATER BUOY     0800   49 46  150/  6/  8   N/A
MILWAUKEE LAKESH 0800   52     190/  5/  6   N/A
S MID LAKE BUOY  0750   47 38  140/  8/ 10   N/A     0
KENOSHA   LAKESH 0800   52     180/  4/  6   N/A
$$

TC  - TEMPERATURE IN CELSIUS
VSB - VISIBILITY IN STATUTE MILES
WCI - WIND CHILL INDEX
HX  - HEAT INDEX




USA.gov is the U.S. government's official web portal to all federal, state and local government web resources and services.